Gatesville, TX

12:24 PM CDT on October 22, 2019 (GMT -0500)
Gatesville

Weather History for KGOP - September, 2019

Change the Weather History Date:

Friday, September 20, 2019

  Actual Average (WUND) Record (WUND)
Temperature  
Mean Temperature 86 °F -  
Max Temperature 95 °F - - (-1)
Min Temperature 77 °F - - (-1)
Cooling Degree Days 21    
Growing Degree Days 36 (Base 50)    
Moisture  
Dew Point 70 °F    
Average Humidity 66    
Maximum Humidity 94    
Minimum Humidity 34    
Precipitation  
Precipitation 0.00 in - - ()
Sea Level Pressure  
Sea Level Pressure 29.96 in    
Wind  
Wind Speed 8 mph ()    
Max Wind Speed 16 mph    
Max Gust Speed 25 mph    
Visibility 9.9 miles    
Events      
Averages and records for this station are not official NWS values.
T = Trace of Precipitation, MM = Missing Value Source: Averaged Metar Reports

Daily Weather History Graph

Daily Weather History Graph

Search for Another Location

Airport or City:

Astronomy

Sep. 20, 2019 Rise Set
Actual Time 7:18 AM CDT 7:30 PM CDT
Civil Twilight 6:53 AM CDT 7:54 PM CDT
Nautical Twilight 6:25 AM CDT 8:23 PM CDT
Astronomical Twilight 5:56 AM CDT 8:51 PM CDT
Moon 11:43 PM CDT (9/20) 1:02 PM CDT (9/20)
Length of Visible Light 13h 01m
Length of Day
12h 12m
Waning Gibbous, 65% of the Moon is Illuminated
Sep 20
Waning Gibbous
Sep 21
Last Quarter
Sep 28
New
Oct 5
First Quarter
Oct 13
Full

Hourly Weather History & Observations

Time (CDT) Temp. Heat Index Dew Point Humidity Pressure Visibility Wind Dir Wind Speed Gust Speed Precip Events Conditions
12:15 AM 77.0 °F - 71.6 °F 83% 29.93 in 10.0 mi SE 5.8 mph - N/A   Unknown
12:35 AM 77.0 °F - 71.6 °F 83% 29.93 in 10.0 mi ESE 4.6 mph - N/A   Mostly Cloudy
12:55 AM 77.0 °F - 71.6 °F 83% 29.93 in 10.0 mi Calm Calm - N/A   Mostly Cloudy
1:15 AM 77.0 °F - 71.6 °F 83% 29.93 in 10.0 mi SE 4.6 mph - N/A   Overcast
1:35 AM 77.0 °F - 71.6 °F 83% 29.93 in 10.0 mi SE 6.9 mph - N/A   Mostly Cloudy
1:55 AM 77.0 °F - 73.4 °F 89% 29.93 in 10.0 mi Calm Calm - N/A   Mostly Cloudy
2:15 AM 77.0 °F - 73.4 °F 89% 29.94 in 10.0 mi Variable 5.8 mph - N/A   Mostly Cloudy
2:35 AM 78.8 °F - 73.4 °F 83% 29.93 in 10.0 mi SE 6.9 mph - N/A   Mostly Cloudy
2:55 AM 78.8 °F - 73.4 °F 83% 29.93 in 10.0 mi SE 3.5 mph - N/A   Mostly Cloudy
3:15 AM 78.8 °F - 73.4 °F 83% 29.93 in 10.0 mi SE 4.6 mph - N/A   Mostly Cloudy
3:35 AM 78.8 °F - 73.4 °F 83% 29.93 in 10.0 mi SE 6.9 mph - N/A   Mostly Cloudy
3:55 AM 78.8 °F - 73.4 °F 83% 29.92 in 10.0 mi SSE 8.1 mph - N/A   Mostly Cloudy
4:15 AM 78.8 °F - 73.4 °F 83% 29.92 in 10.0 mi SSE 8.1 mph - N/A   Mostly Cloudy
4:35 AM 78.8 °F - 73.4 °F 83% 29.92 in 10.0 mi SSE 9.2 mph - N/A   Mostly Cloudy
4:55 AM 78.8 °F - 73.4 °F 83% 29.93 in 10.0 mi SSE 8.1 mph - N/A   Mostly Cloudy
5:15 AM 78.8 °F - 75.2 °F 89% 29.94 in 10.0 mi SSE 8.1 mph - N/A   Mostly Cloudy
5:35 AM 78.8 °F - 75.2 °F 89% 29.94 in 10.0 mi SSE 6.9 mph - N/A   Mostly Cloudy
5:55 AM 78.8 °F - 75.2 °F 89% 29.95 in 10.0 mi SSE 5.8 mph - N/A   Scattered Clouds
6:15 AM 77.0 °F - 75.2 °F 94% 29.95 in 10.0 mi SE 5.8 mph - N/A   Clear
6:35 AM 78.8 °F - 75.2 °F 89% 29.96 in 10.0 mi SE 5.8 mph - N/A   Mostly Cloudy
6:55 AM 78.8 °F - 75.2 °F 89% 29.96 in 10.0 mi SSE 6.9 mph - N/A   Mostly Cloudy
7:15 AM 78.8 °F - 75.2 °F 89% 29.96 in 10.0 mi SE 6.9 mph - N/A   Scattered Clouds
7:35 AM 78.8 °F - 75.2 °F 89% 29.97 in 10.0 mi SSE 5.8 mph - N/A   Partly Cloudy
7:55 AM 78.8 °F - 75.2 °F 89% 29.97 in 4.0 mi South 6.9 mph - N/A   Light Drizzle
8:15 AM 78.8 °F - 75.2 °F 89% 29.97 in 10.0 mi SSE 8.1 mph - N/A   Scattered Clouds
8:35 AM 78.8 °F - 75.2 °F 89% 29.98 in 10.0 mi SSE 8.1 mph - N/A   Partly Cloudy
8:55 AM 80.6 °F 86.2 °F 75.2 °F 84% 29.98 in 10.0 mi SSE 9.2 mph - N/A   Scattered Clouds
9:15 AM 80.6 °F 86.2 °F 75.2 °F 84% 29.99 in 10.0 mi SSE 6.9 mph 13.8 mph N/A   Mostly Cloudy
9:35 AM 82.4 °F 88.2 °F 73.4 °F 74% 29.99 in 10.0 mi South 11.5 mph - N/A   Mostly Cloudy
9:55 AM 82.4 °F 88.2 °F 73.4 °F 74% 30.00 in 10.0 mi South 9.2 mph 18.4 mph N/A   Mostly Cloudy
10:15 AM 82.4 °F 88.2 °F 73.4 °F 74% 30.00 in 10.0 mi South 13.8 mph - N/A   Mostly Cloudy
10:35 AM 82.4 °F 88.2 °F 73.4 °F 74% 30.01 in 10.0 mi South 9.2 mph - N/A   Mostly Cloudy
10:55 AM 86.0 °F 91.8 °F 71.6 °F 62% 30.00 in 10.0 mi South 15.0 mph - N/A   Clear
11:15 AM 87.8 °F 92.6 °F 69.8 °F 55% 30.00 in 10.0 mi South 12.7 mph - N/A   Clear
11:35 AM 87.8 °F 91.4 °F 68.0 °F 52% 30.00 in 10.0 mi South 12.7 mph 21.9 mph N/A   Clear
11:55 AM 89.6 °F 92.2 °F 66.2 °F 46% 30.00 in 10.0 mi SSE 16.1 mph 23.0 mph N/A   Clear
12:15 PM 91.4 °F 94.0 °F 66.2 °F 43% 29.99 in 10.0 mi South 15.0 mph 23.0 mph N/A   Clear
12:35 PM 91.4 °F 94.0 °F 66.2 °F 43% 29.98 in 10.0 mi South 15.0 mph 23.0 mph N/A   Clear
12:55 PM 91.4 °F 93.2 °F 64.4 °F 41% 29.97 in 10.0 mi South 16.1 mph - N/A   Clear
1:15 PM 93.2 °F 94.9 °F 64.4 °F 38% 29.97 in 10.0 mi South 15.0 mph 25.3 mph N/A   Clear
1:35 PM 93.2 °F 94.9 °F 64.4 °F 38% 29.96 in 10.0 mi SSE 10.4 mph 23.0 mph N/A   Clear
1:55 PM 95.0 °F 97.0 °F 64.4 °F 36% 29.95 in 10.0 mi SSE 15.0 mph 21.9 mph N/A   Clear
2:15 PM 93.2 °F 94.1 °F 62.6 °F 36% 29.94 in 10.0 mi South 11.5 mph 23.0 mph N/A   Partly Cloudy
2:35 PM 95.0 °F 96.0 °F 62.6 °F 34% 29.94 in 10.0 mi SSE 12.7 mph - N/A   Partly Cloudy
2:55 PM 95.0 °F 96.0 °F 62.6 °F 34% 29.93 in 10.0 mi South 12.7 mph 20.7 mph N/A   Partly Cloudy
3:15 PM 95.0 °F 96.0 °F 62.6 °F 34% 29.92 in 10.0 mi SSE 15.0 mph 24.2 mph N/A   Partly Cloudy
3:35 PM 95.0 °F 96.0 °F 62.6 °F 34% 29.92 in 10.0 mi SE 12.7 mph 19.6 mph N/A   Partly Cloudy
3:55 PM 95.0 °F 97.0 °F 64.4 °F 36% 29.92 in 10.0 mi SSE 12.7 mph 20.7 mph N/A   Partly Cloudy
4:15 PM 95.0 °F 96.0 °F 62.6 °F 34% 29.91 in 10.0 mi SSE 16.1 mph 24.2 mph N/A   Partly Cloudy
4:35 PM 95.0 °F 96.0 °F 62.6 °F 34% 29.91 in 10.0 mi SE 13.8 mph - N/A   Partly Cloudy
4:55 PM 93.2 °F 94.1 °F 62.6 °F 36% 29.92 in 10.0 mi SSE 11.5 mph 21.9 mph N/A   Clear
5:15 PM 95.0 °F 96.0 °F 62.6 °F 34% 29.92 in 10.0 mi SSE 12.7 mph 21.9 mph N/A   Clear
5:35 PM 93.2 °F 94.9 °F 64.4 °F 38% 29.92 in 10.0 mi SE 10.4 mph 18.4 mph N/A   Clear
5:55 PM 91.4 °F 94.0 °F 66.2 °F 43% 29.92 in 10.0 mi SSE 16.1 mph 23.0 mph N/A   Clear
6:15 PM 89.6 °F 94.7 °F 69.8 °F 52% 29.92 in 10.0 mi SE 11.5 mph 20.7 mph N/A   Clear
6:35 PM 89.6 °F 94.7 °F 69.8 °F 52% 29.93 in 10.0 mi SE 11.5 mph 19.6 mph N/A   Clear
6:55 PM 87.8 °F 91.4 °F 68.0 °F 52% 29.94 in 10.0 mi SE 11.5 mph 25.3 mph N/A   Clear
7:15 PM 87.8 °F 91.4 °F 68.0 °F 52% 29.94 in 10.0 mi SE 13.8 mph - N/A   Clear
7:35 PM 86.0 °F 90.4 °F 69.8 °F 58% 29.95 in 10.0 mi SE 10.4 mph 18.4 mph N/A   Clear
7:55 PM 86.0 °F 90.4 °F 69.8 °F 58% 29.95 in 10.0 mi SSE 12.7 mph 23.0 mph N/A   Clear
8:15 PM 86.0 °F 90.4 °F 69.8 °F 58% 29.96 in 10.0 mi SE 15.0 mph 20.7 mph N/A   Clear
8:35 PM 84.2 °F 88.4 °F 69.8 °F 62% 29.98 in 10.0 mi SSE 13.8 mph - N/A   Clear
8:55 PM 84.2 °F 88.4 °F 69.8 °F 62% 29.98 in 10.0 mi SSE 13.8 mph 21.9 mph N/A   Clear
9:15 PM 84.2 °F 88.4 °F 69.8 °F 62% 29.99 in 10.0 mi SSE 8.1 mph 18.4 mph N/A   Clear
9:35 PM 82.4 °F 86.3 °F 69.8 °F 66% 30.00 in 10.0 mi SE 9.2 mph - N/A   Clear
9:55 PM 82.4 °F 87.2 °F 71.6 °F 70% 30.01 in 10.0 mi SE 12.7 mph - N/A   Partly Cloudy
10:15 PM 80.6 °F 84.6 °F 71.6 °F 74% 30.03 in 10.0 mi SE 10.4 mph 17.3 mph N/A   Clear
10:35 PM 80.6 °F 84.6 °F 71.6 °F 74% 30.04 in 10.0 mi SE 10.4 mph 17.3 mph N/A   Clear
10:55 PM 80.6 °F 84.6 °F 71.6 °F 74% 30.04 in 10.0 mi SE 12.7 mph 18.4 mph N/A   Clear
11:15 PM 80.6 °F 84.6 °F 71.6 °F 74% 30.05 in 10.0 mi SE 9.2 mph 17.3 mph N/A   Clear
11:35 PM 80.6 °F 84.6 °F 71.6 °F 74% 30.05 in 10.0 mi SE 9.2 mph 18.4 mph N/A   Clear
11:55 PM 78.8 °F - 71.6 °F 78% 30.05 in 10.0 mi SE 11.5 mph - N/A   Clear